Location: Constantia
(34.0183°S, 18.4411°E)
Time: 15:11:26
(UTC+00:00)

H-2A R/B - Pass Details

Date: 17 February 2020
Orbit: 577 x 656 km, 98.5° (Epoch: 27 March)

Event Time Altitude Azimuth Distance (km) Brightness Sun altitude
Rises 01:43:43 0° 156° (SSE) 2,851 6.4 -29.6°
Reaches altitude 10° 01:46:03 10° 146° (SE) 1,951 5.5 -29.3°
Maximum altitude 01:49:53 33° 81° (E) 1,033 3.4 -28.7°
Enters shadow 01:49:53 33° 81° (E) 1,033 3.4 -28.7°
